Regional Weather Roundup
Issued by NWS

Home | Current Version | Previous Version | Text Only | Print | Product List | Glossary Off
Versions: 1 2 3 4 5 6 7 8 9 10 11 12 13 14 15 16 17 18 19 20 21 22 23 24 25 26 27 28 29 30 31 32 33 34 35 36 37 38 39 40 41 42 43 44 45 46 47 48 49 50

000
ASUS45 KCYS 272210
RWRWY

WYOMING REGIONAL WEATHER ROUNDUP
NATIONAL WEATHER SERVICE CHEYENNE WY
300 PM MST FRI FEB 27 2015

NOTE:  "FAIR" INDICATES FEW OR NO CLOUDS BELOW 12,000 FEET
WITH NO SIGNIFICANT WEATHER AND/OR OBSTRUCTIONS TO VISIBILITY.

WYZ001-272300-
YELLOWSTONE NATIONAL PARK

CITY           SKY/WX    TMP DP  RH WIND       PRES   REMARKS
LK YELLOWSTONE   N/A     18  11  74 CALM      29.70S
W YELLOWSTONE  NOT AVBL

$$
WYZ002>013-054>058-071-098>099-272300-
NORTHERN WYOMING

CITY           SKY/WX    TMP DP  RH WIND       PRES   REMARKS
JACKSON        CLOUDY    21  16  79 CALM      29.72F
CODY           FAIR      19  10  68 CALM      29.82S
GREYBULL       FAIR      28   6  39 VRB3      29.87S
WORLAND        FAIR      26  10  50 SW6       29.85F WCI  19
SHERIDAN       FAIR      16   5  62 W6        29.90R WCI   7
BUFFALO        FAIR      21   2  43 S7        29.82S WCI  12
GILLETTE       FAIR      23  10  57 S13       29.87S WCI  11
HULETT         FAIR      25  10  54 SW13      29.91F WCI  13
NEWCASTLE      FAIR      21   7  53 SE16      29.95F WCI   7

$$
WYZ014>020-022>026-101>103-272300-
CENTRAL WYOMING

CITY           SKY/WX    TMP DP  RH WIND       PRES   REMARKS
BIG PINEY      CLOUDY    22  11  62 CALM      29.73F
PINEDALE       MOCLDY    19  10  68 N3        29.74F
DUBOIS         CLOUDY    18   9  68 SE13      29.67S WCI   4
LANDER         FAIR      12   3  67 W6        29.80S WCI   3
RIVERTON       FAIR      14   5  67 NE7       29.81F WCI   4
CASPER         FAIR      27   9  46 SW13      29.80F WCI  16
DOUGLAS        FAIR      23  10  57 SE18      29.86S WCI   9

$$
WYZ021-027>030-104>119-272300-
SOUTHERN WYOMING

CITY           SKY/WX    TMP DP  RH WIND       PRES   REMARKS
EVANSTON       LGT SNOW  28  23  81 W6        29.69F WCI  22
KEMMERER       FAIR      30  19  64 CALM      29.70F
FORT BRIDGER   CLOUDY    28  18  67 CALM      29.74F
ROCK SPRINGS   PTSUNNY   29  11  47 VRB3      29.72F
DIXON          FAIR      33  11  39 SW7       29.78F WCI  27
RAWLINS        FAIR      29   7  39 W13       29.74S WCI  19
SARATOGA       CLOUDY    28  12  50 CALM      29.75R
LARAMIE        FAIR      21   6  52 CALM      29.72F
CHEYENNE       LGT SNOW  12   4  70 S15       29.85S WCI  -4
TORRINGTON     PTSUNNY   25   7  46 S23       29.95F WCI  10
PINE BLUFFS    LGT SNOW  18   9  68 S17       29.94S WCI   2

$$



USA.gov is the U.S. government's official web portal to all federal, state and local government web resources and services.